Flag for Switzerland Weather past 2 weeks in Altdorf, Uri, Switzerland

Now
43 °F

Quite cool.


Feels Like: 43 °F
Forecast: 37 / 48 °F
Wind: 1 mph from Northwest

Location: Altdorf

Current Time: Dec 19, 2014 at 12:14:34 PM

Latest Report: Dec 19, 2014 at 11:00 AM


Visibility: N/A

Pressure: 30.27 "Hg

Humidity: 93%

Dew point: 41 °F

Location of AltdorfLocation

Historic Weather in Altdorf — Graph

°F

Altdorf temperature yesterday

Maximum temperature yesterday: 46 °F (at 2:00 PM)
Minimum temperature yesterday: 37 °F (at 3:00 AM)
Average temperature yesterday: 42 °F

Past Weeks' High & Low Weather Summary

 TemperatureHumidityPressure
High59 °F (Dec 13, 1:00 PM)100% (Dec 18, 10:00 PM)30.47 "Hg (Dec 18, 10:00 PM)
Low29 °F (Dec 12, 7:00 AM)31% (Dec 12, 10:00 PM)29.82 "Hg (Dec 12, 10:00 PM)
Average42 °F81%30.12 "Hg
* Reported Dec 4 11:00 AM — Dec 19 11:00 AM, Altdorf, Weather by CustomWeather, © 2014

Note: Actual official high and low records may vary slightly from our data, if they occured in-between our weather recording intervals... More about our weather records

Advertising

Altdorf weather history for previous 24 hours

 ConditionsComfort  
Time TempWeatherWind HumidityBarometerVisibility
11:00 AM
Dec 19
43 °FQuite cool.1 mph93%30.27 "HgN/A
10:00 AM41 °FScattered clouds.3 mph96%30.29 "Hg12 mi
9:00 AM38 °FChilly.2 mph98%30.30 "HgN/A
8:00 AM38 °FChilly.2 mph97%30.29 "HgN/A
7:00 AM40 °FFog.2 mph97%30.28 "Hg3 mi
6:00 AM42 °FQuite cool.2 mph95%30.27 "HgN/A
5:00 AM44 °FQuite cool.2 mph97%30.28 "HgN/A
3:00 AM41 °FQuite cool.3 mph99%30.31 "HgN/A
2:00 AM38 °FChilly.3 mph100%30.31 "HgN/A
1:00 AM41 °FFog.3 mph100%30.30 "Hg1 mi
12:00 AM41 °FQuite cool.5 mph99%30.30 "HgN/A
11:00 PM
Dec 18
42 °FQuite cool.2 mph100%30.30 "HgN/A
10:00 PM42 °FDrizzle. Overcast.1 mph100%30.29 "Hg3 mi
9:00 PM46 °FCool.2 mph98%30.28 "HgN/A
8:00 PM46 °FCool.No wind97%30.27 "HgN/A
7:00 PM46 °FRain. Overcast.No wind99%30.25 "Hg3 mi
6:00 PM45 °FCool.No wind99%30.24 "HgN/A
5:00 PM45 °FCool.1 mph99%30.23 "HgN/A
4:00 PM46 °FLight rain. Low clouds.1 mph98%30.21 "Hg9 mi
3:00 PM45 °FCool.1 mph98%30.19 "HgN/A
2:00 PM46 °FCool.3 mph95%30.18 "HgN/A
1:00 PM45 °FOvercast.1 mph96%30.18 "Hg9 mi
12:00 PM45 °FQuite cool.2 mph95%30.18 "HgN/A
Weather by CustomWeather, © 2014

See weather overviewHow to use our weather pages